Wind_Speed
28 29 30 30 30 30 31 30 30 30 30 30 29 28 27 27 26 25 25 25 25 25 25 25 26 26 26 26 26 26 25 25 26 26 27 28 29 30 30 31 31 31 32 32 32 32 32 32 32 33 33 32
30 31 31 31 31 31 31 31 30 30 30 30 29 29 28 27 27 26 26 26 26 26 26 26 26 26 26 27 27 27 26 27 27 27 28 29 30 31 32 32 33 34 34 34 34 34 34 35 35 35 35 35
31 32 32 31 31 31 31 31 30 30 30 30 29 29 28 28 28 27 27 27 27 27 27 27 27 27 28 28 28 29 28 28 29 29 30 30 31 32 33 33 34 35 36 36 36 37 37 37 38 37 37 38
30 30 31 31 31 31 31 31 30 30 30 29 29 29 29 29 29 29 29 29 29 29 29 29 29 29 29 30 30 31 30 30 30 31 31 32 33 33 34 35 36 36 36 37 38 38 38 39 40 39 39 40
29 28 29 30 30 30 30 30 30 30 30 29 29 29 29 29 30 30 30 30 31 30 30 30 31 32 32 32 32 33 33 32 33 33 33 34 35 35 36 37 37 37 37 38 39 39 40 40 41 41 41 41
28 28 28 29 29 29 29 30 30 30 31 30 30 30 30 31 32 32 32 32 32 32 32 31 32 33 33 33 34 35 35 35 35 35 36 37 37 38 39 40 40 39 40 40 40 41 41 41 41 42 42 42
27 27 28 28 28 28 28 29 29 30 31 31 31 31 32 32 33 34 34 34 34 35 35 34 34 35 35 35 35 36 37 37 37 38 39 40 40 41 42 43 43 43 43 43 43 43 43 43 43 43 43 44
26 26 27 27 28 28 28 29 29 29 30 31 32 33 33 34 35 36 36 36 36 37 37 37 37 37 38 38 37 38 39 39 39 40 41 42 43 44 45 46 46 46 46 46 46 46 47 46 46 46 46 45
27 26 27 27 28 29 29 30 31 31 32 32 33 34 35 36 37 37 37 38 38 38 39 39 39 39 39 40 40 40 41 41 41 42 43 44 44 46 46 47 47 47 48 48 48 48 49 49 49 49 49 48
27 28 28 28 28 29 30 30 31 33 33 34 35 35 36 36 37 38 39 39 39 39 40 40 41 41 41 42 42 43 44 44 43 44 45 45 46 47 48 49 49 49 49 49 50 50 50 51 51 51 51 51
27 27 28 28 28 28 29 30 31 33 34 35 36 37 37 38 38 39 39 40 41 41 41 42 42 42 43 44 44 45 47 47 47 47 47 48 48 49 50 51 51 51 51 52 52 52 52 52 52 53 53 53
25 26 27 27 28 28 28 29 30 32 34 35 36 37 38 38 39 39 40 41 42 42 42 42 42 43 43 44 44 46 47 48 48 49 49 50 50 51 52 53 53 53 53 53 53 54 53 53 53 53 54 54
26 26 26 26 26 27 27 28 29 30 32 34 35 36 37 38 39 39 40 40 41 42 42 42 42 43 43 44 44 45 47 47 48 49 50 50 51 52 53 54 54 55 55 55 55 55 55 54 55 55 55 55
27 27 27 27 27 27 27 28 28 29 31 33 34 35 36 37 39 40 40 41 41 42 43 43 43 43 44 44 45 46 48 48 49 50 50 51 51 52 54 55 55 56 56 56 56 56 56 56 56 56 56 56
27 28 28 28 28 29 29 29 30 31 32 33 35 36 37 38 39 40 42 42 43 44 44 44 45 45 45 46 46 48 49 49 50 51 52 52 53 54 55 55 56 56 57 58 57 57 58 58 58 58 58 58
27 27 28 29 29 30 31 32 32 33 34 35 37 38 39 40 41 42 43 44 45 46 46 47 47 48 48 49 49 50 51 52 52 53 53 54 54 55 56 57 57 57 58 59 58 58 59 59 59 60 59 59
26 28 29 30 31 31 32 33 34 35 36 36 38 39 41 42 43 44 45 46 47 48 49 50 50 51 51 52 52 54 54 55 55 56 56 57 57 57 58 59 59 59 60 60 60 60 60 61 61 61 61 61
28 28 29 30 31 32 33 34 35 36 37 37 38 40 41 43 44 45 47 48 49 50 51 52 52 52 53 53 54 55 56 57 58 58 59 60 60 61 61 61 62 62 63 63 63 63 63 63 63 64 64 64
29 30 31 31 32 33 34 35 36 37 37 38 39 40 41 42 44 45 46 48 49 50 51 52 53 53 54 54 55 55 56 57 58 59 60 61 62 63 63 64 64 64 65 66 66 66 66 66 66 66 66 66
30 30 30 31 31 32 33 34 35 36 37 38 39 40 41 43 44 45 46 48 49 50 51 52 53 54 54 55 56 56 57 57 58 59 60 61 62 63 64 65 65 65 66 67 67 68 68 68 68 68 68 68
29 30 30 30 31 32 33 33 34 35 37 39 39 40 42 43 45 46 47 48 50 51 52 53 54 55 56 56 57 57 58 58 59 60 61 61 62 63 64 65 65 65 66 66 68 69 69 69 69 69 69 68
30 30 31 31 32 32 33 35 36 36 38 40 40 41 42 43 45 46 47 49 50 52 52 53 55 56 57 58 59 59 60 60 61 61 62 63 63 63 64 65 66 66 66 67 68 69 69 69 69 69 69 69
31 31 31 32 32 33 34 35 37 37 38 40 40 41 41 42 44 45 47 48 50 51 52 53 54 55 57 58 59 60 60 61 61 62 62 63 64 64 64 65 66 66 67 68 69 69 69 69 69 69 68 68
32 32 32 33 35 36 36 37 38 38 39 40 40 41 41 42 44 45 46 47 48 49 50 51 52 53 54 55 56 57 58 58 59 59 60 61 62 62 63 63 65 66 67 68 69 69 69 68 68 68 67 66
35 35 35 36 37 38 38 38 39 39 40 41 43 44 44 43 44 45 46 47 47 48 48 48 49 50 51 51 52 52 53 54 55 55 56 57 58 59 60 61 62 63 64 66 67 68 68 67 67 67 66 66
37 37 38 39 39 40 41 41 42 43 44 45 46 48 49 47 46 46 47 47 47 48 49 49 49 49 50 51 51 52 53 53 54 55 56 57 58 58 59 60 60 61 62 64 66 68 69 69 68 67 65 65
38 38 39 40 41 42 43 44 45 46 47 48 49 51 52 51 51 50 50 50 50 51 52 53 53 53 54 54 55 56 56 57 57 58 59 60 60 61 61 61 61 61 61 63 65 66 67 69 70 69 66 65
39 39 40 40 42 43 44 44 45 46 48 49 51 52 54 54 53 54 53 54 54 55 56 56 57 57 58 59 59 60 61 61 62 62 63 63 63 63 63 63 62 60 59 60 61 63 65 66 67 67 68 67
38 38 38 39 40 41 42 44 45 46 48 50 52 53 55 55 55 56 56 57 57 57 57 58 59 60 60 61 62 63 64 64 65 65 65 65 64 63 63 63 62 60 58 57 56 56 59 61 63 65 66 67
39 39 39 39 40 41 43 44 46 49 51 53 54 56 58 59 59 60 59 58 57 57 58 59 60 61 61 62 62 63 63 64 64 63 63 63 62 62 61 61 62 60 59 56 53 51 50 50 54 59 62 64
40 41 41 42 43 45 46 47 50 53 55 56 58 60 61 63 64 63 61 59 59 60 61 61 62 62 62 62 62 62 62 62 61 61 60 60 60 60 59 59 59 59 58 56 53 51 48 46 45 48 52 55
Wind_Direction
318 318 318 319 318 318 317 317 317 316 315 313 312 310 310 309 309 310 311 311 311 311 311 310 309 309 307 306 304 301 299 295 292 289 286 284 282 281 281 280 280 280 280 280 281 281 281 281 280 280 280 280
320 319 319 319 319 318 317 317 317 316 314 313 312 310 310 309 309 310 311 310 310 309 309 308 307 306 305 304 302 301 299 297 294 291 289 286 284 283 282 281 281 281 281 281 282 282 282 281 281 281 281 280
322 321 320 321 320 319 318 317 316 315 314 313 312 311 310 310 311 311 311 310 309 308 308 306 305 305 304 304 303 301 300 298 296 294 292 290 288 286 285 284 283 283 283 283 283 283 283 282 282 282 282 282
323 322 322 322 321 319 318 317 316 315 314 313 312 311 311 311 311 311 310 309 308 307 307 306 305 304 303 302 302 301 300 298 297 295 294 292 291 289 288 286 285 285 285 285 285 284 284 283 283 283 283 282
324 324 324 323 322 320 318 316 316 315 314 314 313 312 312 312 311 310 309 308 306 306 305 304 304 303 303 302 301 300 299 298 297 296 295 293 293 292 290 289 288 288 287 287 287 286 286 285 285 285 284 283
325 326 325 324 322 321 319 317 315 315 315 314 314 313 312 311 309 308 308 307 306 305 304 303 302 302 301 301 301 300 299 298 298 297 296 295 294 294 292 292 291 291 290 290 289 289 288 288 288 287 287 286
326 326 325 324 322 321 319 317 315 314 314 315 315 314 313 311 310 309 308 307 306 305 305 304 302 301 300 299 299 298 298 298 298 297 296 296 295 294 294 294 294 294 293 292 291 290 290 290 289 289 289 289
326 325 324 323 321 321 320 318 317 315 315 315 315 314 313 312 311 310 309 308 307 306 305 304 303 301 300 300 299 298 297 298 297 297 296 296 296 296 296 296 296 295 295 294 293 293 292 292 291 290 290 289
326 325 325 324 323 322 321 321 320 318 318 317 316 315 314 312 311 310 309 309 307 306 305 304 303 302 300 300 300 298 298 298 297 296 296 296 296 296 296 295 295 295 294 294 294 293 293 293 293 293 292 291
327 326 326 326 325 324 323 322 321 319 318 318 317 316 314 312 311 310 309 309 307 306 305 304 304 303 302 302 302 301 300 300 299 297 296 296 295 295 295 295 295 295 294 294 294 294 294 295 295 295 294 293
327 326 326 325 325 325 323 323 322 320 318 318 318 316 315 313 311 310 309 309 308 307 307 306 305 305 305 305 305 304 303 303 302 300 299 298 298 298 297 297 297 297 296 296 295 295 295 295 295 294 294 293
324 324 324 324 324 324 323 322 321 318 316 316 316 315 314 312 311 310 310 310 309 309 308 308 308 307 307 306 306 305 303 302 301 300 300 299 298 298 297 296 296 296 296 296 295 295 295 294 293 293 293 292
322 322 322 322 322 322 321 320 318 316 314 313 313 312 311 310 309 309 309 309 308 308 308 308 307 307 307 306 305 304 302 301 300 299 299 298 297 297 296 296 296 296 296 296 295 295 295 294 293 293 292 291
320 321 321 321 320 318 317 316 315 312 310 309 308 308 307 307 306 306 306 306 306 305 305 305 305 305 304 304 303 301 300 300 299 299 298 298 298 297 296 296 296 296 296 296 295 295 295 295 294 293 292 291
322 322 321 320 319 317 316 315 313 311 309 308 307 306 306 305 305 305 305 304 304 303 303 303 302 302 301 300 299 298 298 298 298 298 298 297 297 297 296 296 295 295 295 295 295 295 295 295 295 294 293 293
324 324 322 321 319 318 317 316 314 313 311 309 308 307 306 305 304 304 303 302 302 301 301 301 300 299 299 298 297 296 296 295 295 295 295 295 294 294 293 293 293 292 292 292 293 293 293 293 292 292 292 291
329 327 325 324 322 320 319 317 315 313 311 309 307 306 305 304 303 302 301 301 300 300 299 299 298 298 297 297 296 295 295 295 294 294 294 293 292 292 291 291 290 290 289 289 290 290 290 290 290 290 289 289
334 332 329 327 324 321 319 317 314 312 310 308 306 304 303 302 301 301 300 300 299 299 299 298 298 297 296 295 295 294 294 294 294 294 293 293 292 291 291 290 290 290 290 290 289 289 289 289 289 289 289 289
336 333 330 327 324 321 319 316 314 311 309 307 305 304 303 302 301 301 300 300 300 299 299 298 298 297 297 296 296 295 294 294 294 293 293 292 292 291 291 291 290 290 290 290 289 289 288 287 287 287 287 287
333 330 327 324 321 318 315 313 310 308 306 305 304 302 302 301 301 300 300 300 300 299 299 299 299 298 298 298 297 297 296 295 295 294 293 292 292 292 292 291 291 290 290 289 288 287 287 286 285 285 285 285
333 329 325 322 319 316 313 311 309 308 306 305 305 304 303 302 301 301 300 300 299 299 299 299 299 299 298 298 298 297 297 297 296 295 295 294 294 293 293 293 292 291 290 289 288 287 287 287 286 286 285 285
335 332 329 325 322 319 317 315 313 312 311 309 309 307 306 305 303 303 302 302 301 300 300 300 300 300 300 299 299 298 298 297 297 296 295 295 295 294 293 293 292 292 290 289 288 288 288 287 287 286 285 285
337 335 333 330 328 326 325 323 322 322 319 317 315 313 311 310 308 308 307 306 306 305 305 304 304 303 302 302 302 301 300 299 298 297 296 296 295 294 293 293 292 291 291 290 289 289 288 287 287 286 286 285
341 340 338 337 335 332 332 330 328 328 326 323 322 319 317 317 315 313 312 310 309 308 308 307 306 305 305 305 304 304 303 302 300 300 299 298 297 296 295 294 292 292 291 290 290 289 288 287 287 287 286 286
343 343 343 342 339 335 335 334 331 330 329 327 325 322 320 320 318 315 313 310 309 309 308 308 308 307 307 307 306 306 305 304 304 303 302 300 299 299 297 296 294 293 292 291 290 289 288 288 287 287 287 287
344 343 343 342 339 337 337 337 335 334 332 330 328 324 322 321 320 316 314 313 312 311 311 311 311 311 310 310 309 308 307 306 305 304 303 302 301 300 299 299 298 296 295 294 293 293 292 291 290 289 288 287
342 341 340 339 338 337 336 336 334 333 331 329 327 323 321 320 320 318 318 317 316 315 315 315 315 314 314 313 312 310 309 308 307 305 304 303 302 301 300 299 299 298 297 296 295 294 294 293 292 291 289 288
339 338 337 335 334 333 332 330 329 327 326 324 322 321 320 320 320 320 320 319 318 317 317 317 316 316 315 314 313 312 311 309 308 306 305 304 303 302 300 299 298 297 296 296 295 295 293 293 292 292 290 289
334 332 331 330 328 326 324 323 322 320 319 319 320 320 320 320 320 321 321 320 319 318 317 316 316 315 314 313 312 311 310 309 308 307 306 305 304 303 301 300 299 298 298 297 298 298 297 296 294 293 292 290
330 328 326 325 323 321 320 319 319 319 319 321 322 322 320 321 321 322 322 321 320 319 317 317 316 315 314 312 311 310 309 308 307 306 306 305 304 304 303 302 301 300 300 300 299 299 299 299 297 295 294 293
327 325 324 323 322 321 321 320 320 320 322 323 323 322 322 322 323 324 324 323 322 321 319 318 317 316 315 313 312 311 310 310 309 308 307 307 306 306 305 304 303 302 301 301 301 301 300 298 296 295 294 294
Height
3134 3132 3131 3130 3129 3128 3126 3125 3124 3122 3121 3120 3118 3117 3116 3114 3113 3112 3111 3110 3109 3107 3106 3105 3104 3103 3101 3100 3099 3098 3097 3096 3095 3093 3092 3091 3090 3089 3088 3087 3086 3085 3084 3082 3081 3080 3079 3078 3077 3076 3075 3075
3132 3131 3130 3129 3127 3126 3124 3123 3122 3120 3119 3118 3117 3115 3114 3113 3111 3110 3109 3108 3107 3105 3104 3103 3102 3100 3099 3098 3097 3095 3094 3093 3092 3090 3089 3088 3087 3086 3085 3084 3082 3081 3080 3079 3078 3077 3076 3075 3074 3073 3072 3072
3131 3129 3128 3127 3125 3124 3122 3121 3120 3119 3117 3116 3115 3114 3112 3111 3110 3109 3107 3106 3105 3103 3102 3101 3099 3098 3097 3095 3094 3093 3091 3090 3089 3087 3086 3085 3084 3083 3082 3080 3079 3078 3077 3076 3075 3074 3073 3071 3070 3070 3069 3068
3130 3128 3126 3125 3123 3122 3120 3119 3118 3117 3116 3114 3113 3112 3110 3109 3108 3106 3105 3104 3103 3101 3100 3098 3097 3096 3094 3093 3091 3090 3089 3087 3086 3085 3083 3082 3081 3079 3078 3077 3076 3075 3074 3072 3071 3070 3069 3067 3067 3066 3065 3064
3127 3126 3125 3123 3122 3120 3119 3117 3116 3115 3114 3112 3111 3109 3108 3106 3105 3104 3103 3102 3100 3099 3098 3096 3095 3093 3092 3090 3089 3088 3086 3085 3084 3082 3080 3079 3077 3076 3075 3073 3072 3072 3070 3069 3068 3066 3065 3064 3063 3062 3061 3060
3125 3124 3123 3121 3120 3118 3117 3116 3114 3113 3111 3110 3109 3107 3106 3104 3103 3101 3100 3099 3098 3097 3096 3095 3093 3091 3090 3088 3086 3085 3083 3082 3081 3079 3078 3076 3075 3073 3071 3070 3069 3069 3067 3066 3065 3063 3062 3060 3059 3058 3057 3056
3123 3122 3120 3119 3118 3116 3115 3114 3113 3111 3110 3108 3107 3105 3104 3102 3101 3099 3098 3097 3095 3094 3093 3092 3090 3089 3087 3086 3084 3082 3080 3079 3078 3076 3074 3073 3072 3070 3069 3067 3066 3065 3064 3063 3062 3060 3059 3057 3056 3055 3053 3052
3121 3120 3118 3117 3115 3114 3113 3112 3111 3110 3108 3107 3105 3103 3102 3100 3098 3097 3096 3094 3093 3091 3090 3089 3087 3085 3084 3082 3081 3079 3077 3076 3074 3073 3071 3070 3068 3067 3065 3064 3063 3061 3060 3059 3057 3056 3054 3054 3053 3051 3050 3048
3119 3118 3116 3114 3113 3111 3110 3109 3108 3107 3106 3104 3103 3101 3100 3098 3096 3094 3093 3091 3090 3088 3087 3085 3084 3082 3081 3079 3078 3076 3074 3073 3072 3070 3068 3067 3065 3064 3062 3060 3059 3057 3055 3054 3053 3051 3049 3048 3047 3046 3045 3044
3117 3116 3114 3113 3111 3109 3108 3107 3106 3104 3103 3102 3100 3099 3097 3096 3094 3092 3090 3089 3087 3085 3084 3082 3081 3079 3077 3075 3074 3073 3070 3069 3069 3067 3065 3063 3062 3060 3058 3056 3055 3054 3052 3050 3048 3047 3045 3043 3041 3040 3039 3037
3116 3114 3112 3110 3109 3107 3106 3105 3104 3102 3100 3099 3098 3096 3094 3093 3091 3089 3087 3085 3083 3082 3081 3079 3078 3076 3074 3072 3070 3068 3065 3064 3063 3061 3060 3058 3056 3055 3053 3051 3049 3048 3046 3044 3043 3041 3040 3039 3037 3035 3033 3032
3114 3113 3111 3109 3107 3106 3104 3103 3102 3100 3098 3096 3095 3093 3091 3089 3087 3086 3084 3082 3080 3078 3077 3076 3074 3073 3071 3069 3067 3065 3062 3060 3058 3056 3055 3053 3051 3049 3047 3045 3043 3042 3040 3039 3037 3036 3035 3034 3032 3031 3029 3027
3112 3111 3109 3107 3106 3104 3102 3101 3099 3098 3096 3094 3092 3090 3088 3086 3084 3083 3081 3079 3077 3075 3073 3072 3070 3069 3067 3065 3063 3060 3058 3056 3054 3052 3050 3048 3046 3044 3042 3040 3038 3036 3035 3033 3032 3030 3029 3028 3027 3026 3024 3023
3110 3109 3107 3106 3104 3102 3100 3099 3097 3095 3093 3092 3090 3088 3086 3083 3081 3079 3078 3076 3074 3072 3070 3069 3067 3065 3063 3061 3059 3056 3053 3052 3049 3047 3045 3043 3041 3039 3037 3035 3033 3030 3028 3027 3025 3024 3022 3021 3020 3019 3017 3017
3109 3107 3105 3104 3102 3100 3098 3097 3095 3093 3091 3090 3087 3085 3083 3081 3079 3077 3075 3073 3071 3069 3067 3065 3063 3061 3059 3057 3055 3051 3049 3047 3045 3042 3040 3038 3036 3034 3031 3029 3027 3025 3022 3020 3019 3018 3016 3014 3013 3011 3010 3009
3107 3106 3104 3102 3101 3099 3097 3095 3094 3092 3090 3088 3085 3083 3081 3079 3076 3074 3072 3069 3067 3065 3063 3061 3059 3057 3055 3052 3050 3047 3044 3042 3040 3038 3035 3033 3031 3028 3026 3023 3021 3020 3017 3015 3014 3012 3010 3008 3006 3005 3003 3002
3106 3105 3103 3101 3099 3097 3095 3093 3091 3089 3087 3085 3083 3080 3078 3075 3073 3071 3068 3066 3063 3061 3059 3057 3054 3052 3050 3048 3045 3042 3039 3037 3035 3032 3030 3028 3025 3022 3020 3017 3015 3013 3011 3009 3008 3006 3004 3002 3000 2998 2997 2995
3105 3103 3102 3099 3097 3095 3093 3091 3089 3087 3084 3082 3080 3077 3075 3072 3070 3067 3064 3062 3059 3057 3054 3052 3050 3048 3045 3043 3040 3038 3035 3032 3029 3026 3023 3021 3018 3015 3013 3010 3008 3006 3003 3001 3000 2998 2997 2995 2993 2991 2988 2987
3104 3102 3100 3098 3095 3093 3091 3089 3087 3084 3082 3079 3077 3074 3072 3069 3066 3064 3061 3058 3055 3053 3050 3047 3045 3043 3040 3038 3035 3033 3030 3027 3024 3021 3017 3014 3011 3008 3005 3003 3001 2999 2996 2994 2992 2990 2989 2987 2985 2984 2981 2979
3103 3101 3099 3097 3094 3092 3090 3087 3085 3082 3079 3077 3075 3072 3069 3066 3064 3061 3058 3055 3052 3049 3046 3043 3040 3038 3035 3032 3029 3027 3024 3021 3018 3015 3011 3008 3005 3001 2998 2996 2994 2992 2989 2986 2984 2982 2980 2979 2977 2976 2974 2973
3101 3099 3097 3095 3093 3090 3088 3085 3082 3080 3076 3074 3072 3069 3067 3064 3060 3058 3055 3052 3049 3045 3042 3039 3036 3033 3030 3026 3024 3021 3018 3015 3012 3008 3005 3002 2999 2995 2991 2989 2986 2984 2982 2979 2976 2973 2971 2970 2969 2967 2966 2965
3100 3097 3095 3093 3090 3087 3085 3082 3079 3077 3073 3070 3068 3065 3063 3060 3056 3053 3051 3048 3044 3040 3038 3035 3031 3028 3024 3021 3018 3015 3012 3009 3006 3002 2998 2995 2993 2990 2985 2982 2979 2976 2973 2970 2967 2965 2964 2962 2960 2959 2958 2957
3098 3096 3093 3091 3088 3085 3082 3079 3075 3073 3070 3067 3064 3061 3059 3056 3052 3049 3046 3043 3039 3036 3033 3030 3026 3022 3019 3015 3012 3009 3005 3002 2999 2996 2992 2989 2986 2983 2980 2976 2972 2968 2964 2961 2959 2957 2955 2953 2951 2950 2949 2948
3096 3094 3091 3088 3085 3081 3078 3075 3072 3070 3066 3063 3060 3056 3055 3052 3049 3045 3042 3038 3035 3031 3028 3025 3022 3018 3014 3010 3007 3003 2999 2996 2992 2989 2986 2982 2979 2976 2973 2970 2966 2962 2957 2953 2951 2949 2946 2945 2943 2942 2940 2940
3093 3090 3088 3085 3081 3078 3075 3073 3070 3067 3063 3060 3056 3051 3050 3049 3046 3041 3038 3034 3031 3028 3024 3021 3017 3014 3010 3006 3003 2999 2994 2990 2987 2983 2979 2975 2972 2968 2965 2963 2958 2954 2950 2946 2942 2939 2938 2938 2936 2934 2933 2932
3089 3087 3084 3081 3078 3074 3072 3069 3066 3063 3060 3056 3052 3047 3044 3044 3041 3037 3034 3030 3027 3023 3019 3016 3013 3009 3005 3002 2998 2994 2990 2985 2981 2977 2973 2969 2966 2963 2958 2955 2951 2946 2942 2938 2933 2928 2926 2926 2926 2926 2924 2922
3087 3084 3081 3078 3075 3071 3069 3066 3062 3059 3056 3053 3050 3045 3040 3038 3036 3032 3030 3026 3022 3018 3014 3010 3007 3003 3000 2996 2991 2987 2983 2979 2975 2971 2967 2963 2959 2956 2952 2948 2944 2939 2934 2929 2925 2920 2916 2913 2911 2913 2912 2910
3085 3082 3080 3076 3073 3069 3066 3064 3061 3058 3055 3052 3048 3043 3037 3033 3030 3027 3024 3021 3017 3013 3009 3005 3001 2997 2993 2989 2984 2980 2975 2971 2967 2963 2959 2955 2951 2947 2943 2939 2936 2932 2928 2922 2917 2912 2908 2906 2902 2901 2899 2898
3084 3081 3079 3076 3073 3070 3067 3064 3062 3059 3055 3051 3046 3041 3035 3030 3026 3022 3019 3015 3012 3008 3004 2999 2995 2991 2987 2982 2978 2973 2968 2964 2959 2955 2950 2946 2942 2938 2934 2930 2926 2923 2920 2917 2912 2907 2901 2898 2894 2891 2889 2886
3081 3079 3076 3074 3071 3069 3066 3062 3058 3054 3050 3046 3041 3037 3032 3027 3022 3018 3015 3010 3006 3002 2998 2994 2989 2985 2980 2976 2971 2966 2962 2957 2952 2947 2943 2938 2934 2930 2926 2921 2918 2914 2912 2910 2907 2903 2899 2894 2889 2884 2881 2876
3078 3075 3072 3069 3066 3063 3060 3056 3052 3048 3044 3039 3035 3031 3026 3021 3017 3012 3008 3004 3000 2996 2991 2987 2982 2977 2973 2968 2963 2958 2954 2949 2945 2940 2936 2931 2926 2922 2918 2914 2910 2906 2903 2902 2899 2897 2895 2892 2888 2882 2878 2873